User: anonymous   Login
Location: Wayah Bald
(35.1806°N, 83.5603°W)
Time: 12:39:32
(UTC-04:00)
Language:

Meteor 1-27 Rocket - Orbit

View from above orbital plane
View from above orbital plane
View from above satellite
View from above satellite

Ground track
Ground track

The orbit data is extracted from the following two-line orbital elements,

1  9904U 77024B   17142.50639545 +.00000138 +00000-0 +74136-4 0  9991
2  9904 081.2608 154.6630 0055312 041.7035 318.8330 14.06848463058968
Epoch (UTC): 22 May 2017 12:09:12
Eccentricity: 0.0055312
inclination: 81.2608°
perigee height: 830 km
apogee height: 910 km
right ascension of ascending node: 154.6630°
argument of perigee: 41.7035°
revolutions per day: 14.06848463
mean anomaly at epoch: 318.8330°
orbit number at epoch: 5896

The dashed part of the orbit path shows where the satellite is in the earth's shadow,  

DLR